Regional Weather Roundup
Issued by NWS

Home | Current Version | Previous Version | Graphics & Text | Print | Product List | Glossary On
Versions: 1 2 3 4 5 6 7 8 9 10 11 12 13 14 15 16 17 18 19 20 21 22 23 24 25 26 27 28 29 30 31 32 33 34 35 36 37 38 39 40 41 42 43 44 45 46 47 48 49 50
374
ASUS44 KLIX 310805
RWRLA
LOUISIANA WEATHER ROUNDUP
NATIONAL WEATHER SERVICE NEW ORLEANS LA
300 AM CDT THU JUL 31 2014

NOTE: "FAIR" INDICATES FEW OR NO CLOUDS BELOW 12,000 FEET WITH NO
      SIGNIFICANT WEATHER AND/OR OBSTRUCTIONS TO VISIBILITY.
      SKY/WX - SKY CONDITION AND SIGNIFICANT WEATHER.
      TMP - AIR TEMPERATURE.    DP   - DEWPOINT TEMPERATURE.
      RH  - RELATIVE HUMIDITY.  PRES - PRESSURE.
      HX  - HEAT INDEX.         WCI  - WIND CHILL INDEX.

*  THESE STATIONS ARE NOT NWS OR FAA STATIONS AND ARE NOT UNDER
   NWS QUALITY CONTROL.

LAZ040-048-061>063-065-066-069-310900-
SOUTHEAST LOUISIANA

CITY           SKY/WX    TMP DP  RH WIND       PRES   REMARKS
N.O. AUDUBON     N/A     79  64  59 MISG        N/A
N.O. INTL ARPT CLEAR     75  62  64 E3        30.00F
N.O. LAKEFRONT CLEAR     79  66  64 E8        30.00F
N.O. DOWNTOWN* FAIR      79  61  53 CALM      30.01S
SLIDELL        CLEAR     66  63  90 CALM      30.00F
BATON ROUGE    PTCLDY    70  65  84 E5        30.00F
BOOTHVILLE     CLEAR     76  67  73 CALM      30.01S
BELLE CHASSE   CLEAR     69  65  86 CALM      30.00S
BOGALUSA*      FAIR      68  64  85 CALM      30.03S
GALLIANO*      NOT AVBL
NEW ROADS*     FAIR      72  64  77 CALM      30.01S
GONZALES*      FAIR      68  68  98 CALM      30.00F
HAMMOND*       MOCLDY    72  63  73 CALM      30.02S
HOUMA*         CLEAR     69  64  83 CALM      30.00S
PORT FOURCHON* CLOUDY    81  64  57 E3        30.01S

$$

LAZ041-044-053-054-310900-
SOUTHWEST LOUISIANA

CITY           SKY/WX    TMP DP  RH WIND       PRES   REMARKS
LAKE CHARLES   PTCLDY    74  67  78 SE5       29.99F
LAFAYETTE      CLEAR     72  68  87 CALM      30.00F
PATTERSON      CLEAR     70  68  94 CALM      30.03F
SALT POINT       N/A     75  70  84 CALM      29.99F
NEW IBERIA     CLEAR     71  67  87 CALM      30.00F
CHENAULT AIRPK PTCLDY    73  66  80 CALM      30.00S

$$

LAZ027-028-310900-
CENTRAL LOUISIANA

CITY           SKY/WX    TMP DP  RH WIND       PRES   REMARKS
FORT POLK      MOCLDY    74  63  68 E7        29.99F
ALEXANDRIA INT CLOUDY    75  63  66 E7        29.98F
ALEXANDRIA     CLOUDY    72  66  81 CALM      30.01F

$$

LAZ001-002-310900-
NORTHWEST LOUISIANA

CITY           SKY/WX    TMP DP  RH WIND       PRES   REMARKS
SHREVEPORT     CLOUDY    74  64  71 SE7       29.99F
BARKSDALE AFB  CLOUDY    71  65  79 SE7       30.00F
DTN SHREVEPORT CLOUDY    73  64  73 SE9       29.99F

$$

LAZ014-016-310900-
NORTHEAST LOUISIANA

CITY           SKY/WX    TMP DP  RH WIND       PRES   REMARKS
MONROE         CLOUDY    71  65  81 NE7       30.03F
TALLULAH       MOCLDY    73  64  73 E3        30.03S

$$




USA.gov is the U.S. government's official web portal to all federal, state and local government web resources and services.